Other Public Products
Issued by NWS Grand Forks, ND

Home | Current Version | Previous Version | Text Only | Print | Product List | Glossary On
Versions: 1 2 3 4 5 6 7 8 9 10 11 12 13 14 15 16 17 18 19 20 21 22 23 24 25 26 27 28 29 30 31 32 33 34 35 36 37 38 39 40 41 42 43 44 45 46 47 48 49 50
000
FPUS83 KFGF 211710
OPUFGF
PRAIRIE TO PINES WEATHER ROUNDUP
NATIONAL WEATHER SERVICE EASTERN NORTH DAKOTA/GRAND FORKS ND
1200 PM CDT THU SEP 21 2017

 **SATELLITE DATA USED TO AUGMENT SKY COVER AT AUTOMATED STATIONS**
 *****  WEATHER ACROSS EASTERN NORTH DAKOTA  *****

CITY           SKY/WX    TMP DP  RH WIND       PRES   REMARKS
GRAND FORKS    FAIR      72  51  47 S18G28    29.79F
GRAND FORKS AF FAIR      71  48  44 S20G28    29.79F
GRAND CITY NWS NOT AVBL
BUXTON         NOT AVBL
DEVILS LAKE    FAIR      66  47  50 S14       29.74F
FARGO          FAIR      72  47  40 S20G25    29.81S
WAHPETON ARPT  FAIR      72  41  33 SE17G24   29.82F
$$

 *****  WEATHER ACROSS CENTRAL AND WESTERN NORTH DAKOTA  *****

CITY           SKY/WX    TMP DP  RH WIND       PRES   REMARKS
JAMESTOWN      FAIR      71  49  45 S21G28    29.75F
BISMARCK       FAIR      73  51  46 S23G29    29.67F
MINOT          PTSUNNY   62  46  55 N5        29.69F
MINOT AFB      PTSUNNY   62  42  47 E6        29.68F
GARRISON         N/A     62  45  53 S5        29.69R
WILLISTON      LGT RAIN  52  46  80 CALM      29.71S
DICKINSON      FAIR      64  39  39 N12       29.69R
HETTINGER      FAIR      67  40  37 N5        29.69R
$$

 *****  OTHER OBSERVATIONS NORTHEAST NORTH DAKOTA  *****

CITY           SKY/WX    TMP DP  RH WIND       PRES   REMARKS
WALHALLA       FAIR     N/A N/A N/A S15       29.76S
LANGDON        FAIR      66  48  52 S21G28    29.76S
CAVALIER       FAIR      64  52  63 S13       29.77F
GRAFTON        FAIR      70  50  49 S21G29    29.80F
CANDO          PTSUNNY   63  50  63 S14G23    29.74S
FORT TOTTEN      N/A     68  46  45 S14       29.95S
ROLLA          FAIR      57  48  72 SE6       29.74F
RUGBY          FAIR      59  50  72 SE7       29.70
 ***** THE ABOVE OBSERVATIONS ARE NON NWS ARE NOT QUALITY
        CONTROLLED AND MAY MIS-REPORT RAIN FOR SNOW...
$$

 *****  OTHER OBSERVATIONS SOUTHEAST NORTH DAKOTA *****

CITY           SKY/WX    TMP DP  RH WIND       PRES   REMARKS
COOPERSTOWN    FAIR      72  48  43 S20       29.78F
VALLEY CITY    FAIR      70  50  49 S13       29.79
OAKES          NOT AVBL
GWINNER        SUNNY     73  48  40 SE14      29.79F
SHEYENNE NWR     N/A     72  49  44 S18       29.95S
BUFFALO        NOT AVBL
WYNDMERE       NOT AVBL
 ***** THE ABOVE OBSERVATIONS ARE NON NWS ARE NOT QUALITY
       CONTROLLED AND MAY MIS-REPORT RAIN FOR SNOW...
$$

  *****  WEATHER ACROSS NORTHERN MINNESOTA  *****

CITY           SKY/WX    TMP DP  RH WIND       PRES   REMARKS
FLAG ISLAND    FAIR      63  52  67 S15       29.87F
WARROAD        FAIR      72  48  43 SE14G21   29.85F
ROSEAU         FAIR      72  48  43 S17       29.84F
HALLOCK        CLOUDY    72  48  43 S23G31    29.79F
THF RVR FALLS  FAIR      71  44  37 SE14      29.85F
HALSTAD        NOT AVBL
FOSSTON        FAIR      72  45  37 SE12G17   29.85F
BAUDETTE       FAIR      70  44  39 SE15G22   29.90F
WASKISH        FAIR      70  45  40 S10G16    29.91F
CROOKSTON      FAIR      72  46  40 S17       29.82F
$$
  *****  WEATHER ACROSS CENTRAL AND WEST MINNESOTA  *****

CITY           SKY/WX    TMP DP  RH WIND       PRES   REMARKS
BEMIDJI        FAIR      69  42  37 SE16      29.90F
PARK RAPIDS    FAIR      69  45  41 SE16      29.89F
WADENA         FAIR      68  46  45 SE21      29.88F
DETROIT LAKES  FAIR      70  45  40 SE18      29.86F
MOORHEAD       FAIR      72  43  35 SE21G26   29.82S
FERGUS FALLS   FAIR      72  45  37 SE18      29.83F
ELBOW LAKE     FAIR      70  49  45 E14G22    29.85F
MORRIS MN      FAIR      72  48  43 SE24      29.82F
STAPLES        NOT AVBL
WHEATON        FAIR      73  43  33 SE21G28   29.82F
$$
  *****  WEATHER ELSEWHERE ACROSS MINNESOTA  *****

CITY           SKY/WX    TMP DP  RH WIND       PRES   REMARKS
DULUTH         FAIR      66  53  63 SE14      30.01F
INTRNTL FALLS  FAIR      67  46  47 SE13      29.95F
ELY            FAIR      66  45  45 SE10G20   30.01F
CLOQUET        FAIR      64  52  63 E10G16    29.99F
BRAINERD       FAIR      68  50  52 SE10      29.93F
HIBBING        FAIR      65  47  52 SE16G25   29.98F
ALEXANDRIA     FAIR      71  48  43 SE16G24   29.89F
SAINT CLOUD    FAIR      72  53  51 SE9G22    29.91F
MINNEAPOLIS    FAIR      74  58  57 SE15      29.94F
$$

  *****  WEATHER ACROSS SOUTH DAKOTA  *****

CITY           SKY/WX    TMP DP  RH WIND       PRES   REMARKS
SIOUX FALLS    FAIR      78  67  68 SE17G26   29.79F
BROOKINGS      FAIR      76  63  64 SE18G28   29.80F
WATERTOWN      FAIR      73  47  39 SE22G31   29.78F
HURON          PTSUNNY   75  57  53 SE15G26   29.74F
SISSETON         N/A     73  48  41 SE18G30   29.80F
ABERDEEN       CLOUDY    73  46  38 S18G24    29.76F
MITCHELL       PTSUNNY   75  63  66 S22G31    29.74F
PIERRE         FAIR      77  57  50 SE25G32   29.66F
MOBRIDGE       FAIR      77  56  48 S31G41    29.64F
RAPID CITY     SUNNY     72  41  33 N8        29.68S
$$

  *****  SOME WEATHER IN NEARBY STATES *****

CITY           SKY/WX    TMP DP  RH WIND       PRES   REMARKS
GLASGOW MT     FAIR      50  33  52 NW10      29.77R
GREAT FALLS MT FAIR      49  29  46 N6        29.82S
CHEYENNE WY    FAIR      78  19  11 S20G25    29.82S
SCOTTSBLUFF NE FAIR      67  44  43 E7        29.73F
OMAHA NE       FAIR      85  72  65 S17       29.83F HX  91
DES MOINES IA  CLOUDY    78  66  66 SE20      29.94S
DAVENPORT IA   FAIR      81  56  42 SW10G25   29.96F
CHICAGO IL     PTSUNNY   90  62  39 S6        30.02S HX  90
EAU CLAIRE WI  FAIR      75  63  66 SE12      29.96F
LA CROSSE WI   SUNNY     77  66  69 E6          N/A
$$

  *****  SOME NATIONAL WEATHER *****

CITY           SKY/WX    TMP DP  RH WIND       PRES   REMARKS
LA GUARDIA NY  PTSUNNY   79  63  57 NE13G21   30.00S
RALEIGH NC     PTSUNNY   85  65  51 NE8       30.05F
ATLANTA GA     FAIR      87  66  49 S5        30.09F
NEW ORLEANS LA FAIR      85  73  67 E7        30.04S HX  91
OKLAHOMA CITY  PTSUNNY   87  71  58 S16G26    29.91S HX  93
ALBUQUERQUE NM FAIR      75  39  27 S9        30.06F
SALT LAKE CITY PTSUNNY   56  41  57 NW9       29.77S
LOS ANGELES CA PTSUNNY   67  63  87 W13       29.87R
BOISE ID       CLOUDY    49  44  83 NW6       29.83S
SEATTLE WA     CLOUDY    52  49  89 SW6       29.93R
$$

*** WEATHER ACROSS MANITOBA...SASKATCHEWAN AND ONTARIO ***
                ***ONTARIO***

CITY           SKY/WX    TMP DP  RH WIND       PRES   REMARKS
GERALDTON      MOSUNNY   66  45  45 SE3       30.08F
THUNDER BAY    MOSUNNY   66  55  68 E9        30.07S
SIOUX LOOKOUT  PTSUNNY   68  46  45 S9        29.97F
TORONTO        MOSUNNY   79  63  57 E12       30.11F
BIG TROUT LK   SUNNY     61  50  67 SW8       29.85S
PICKLE LAKE    PTSUNNY   64  48  55 SW9       29.98R
DRYDEN         CLOUDY    64  46  52 S13G18    29.97R
KENORA         CLOUDY    63  45  51 S12G20    29.90F
$$
                *** MANITOBA***

CITY           SKY/WX    TMP DP  RH WIND       PRES   REMARKS
BRANDON        LGT RAIN  54  50  87 S6        29.73F
DAUPHIN        PTSUNNY   55  45  67 VRB2      29.69S
ISLAND LAKE    CLOUDY    59  46  63 S10       29.73R
PILOT MOUND      N/A     59  50  72 S8          N/A
THE PAS        MOSUNNY   55  41  58 W9        29.61R
THOMPSON       MOSUNNY   57  46  67 SW6       29.57R
WINNIPEG       LGT RAIN  61  50  67 S17       29.78F
LYNN LAKE      LGT RAIN  43  41  93 N7        29.56R FOG
CHURCHILL      PTSUNNY   54  48  82 S8        29.58R
GILLAM         MOSUNNY   59  50  72 S8        29.60S
$$
                ***SASKATCHEWAN***

CITY           SKY/WX    TMP DP  RH WIND       PRES   REMARKS
ESTEVAN        PTSUNNY   57  41  54 NW6       29.70F
KINDERSLEY     CLOUDY    43  36  75 W18       29.71R
LLOYDMINSTER   CLOUDY    41  39  93 NW10      29.70R
PRINCE ALBERT  PTSUNNY   50  39  66 W9        29.65R
REGINA         PTSUNNY   52  36  54 NW14G22   29.74R
YORKTON        PTSUNNY   54  37  54 N5        29.70R


USA.gov is the U.S. government's official web portal to all federal, state and local government web resources and services.